Location: ??????????
(48.5701°N, 37.7703°E)
Time: 19:17:54
(UTC+00:00)

SL-27 R/B - Pass Details

Date: 14 July 2020
Orbit: 420 x 470 km, 74.7° (Epoch: 11 August)

Event Time Altitude Azimuth Distance (km) Brightness Sun altitude
Exits shadow 00:47:15 - 180° (S) 2,215 5.5 -7.7°
Reaches altitude 10° 00:48:49 10° 173° (S) 1,588 4.8 -7.5°
Maximum altitude 00:52:04 37° 105° (ESE) 723 3.8 -7.2°
Drops below altitude 10° 00:55:16 10° 37° (NE) 1,575 6.9 -6.8°
Sets 00:57:26 0° 29° (NNE) 2,441 7.9 -6.5°
